COSMOS 1275 DEB, 13812

Orbit data source: Space-Track

COSMOS 1275 DEB, 13812 is space debris in LEO originally from a launch on Thu, 04 Jun 1981 UTC launched from the Plesetsk Missile And Space Complex (PKMTR). Debris objects in space refer to the collection of defunct objects orbiting the Earth. Examples of debris include non-operational satellites, rocket bodies, and fragments generated from explosions, collisions, or faulty payload assembly.

Loading next visibility...
Identifier
13812, 1981-053HG
Orbit
LEO
Country
Flag of CISCIS
Related business
Manufacturer
Unknown
Mission
Spacecraft
Bus & Motor
Unknown
Mass
Unknown
Launch date (UTC)
1981-06-04 (45 years ago)
Launch vehicle
Unknown
Launch site
Plesetsk Missile And Space Complex (PKMTR)
Object type
Payload
Rocket body
Debris
Shape & HBR
Unknown shape, 0.1 m
Radar Cross Section
Medium (>0.1 m² and <1 m²)

Expand to show TLE details & history
Last TLE update: 3 days ago

TLE from 3 days ago
0 COSMOS 1275 DEB
1 13812U 81053HG  26171.00208270  .00003932  00000-0  12582-2 0  9995
2 13812  83.2474   4.3052 0031709 312.0284 200.2405 14.39133335226210
Epoch: 2026-06-20T00:02Z
TLE epoch observation values (Epoch: 2026-06-20T00:02:59.945Z)
Latitude
27.6875°
Longitude
-88.21068°
Altitude
786.085 km
Speed
7.452 km/s
True Right ascension
12h 03m 02s
True Declination
27° 32' 49"
Sunlit
Object was in daylight at epoch
Visualization orbit readout
Latitude
Unknown
Longitude
Unknown
Altitude
Unknown
Speed
Unknown
Apparent Right ascension
Unknown
Apparent Declination
Unknown
Sunlit
N/A
Visualization observer readout
Local Sidereal Time
00:51:05
Azimuth
Unknown
Elevation
Unknown
Doppler factor
Unknown
Orbital elements
Apogee altitude
781.041 km
Perigee altitude
735.783 km
Semi-major axis
7,136.549 km
Eccentricity
0.00317
Inclination
83.2474°
RAAN
4.3052°
Arg. of periapsis
312.0284°
True anomaly
200.11526°
Mean anomaly
200.2405°
Eccentric anomaly
200.17783°
Mean motion
3.60007 °/min
Orbital period
100 mins
BSTAR
0.0012582
Loading maneuver chart data...
Computing Atmospheric mass density...

Documentation

Showing up to 5 results
|